STARLINK-3797, 52337

Orbit data source: Space-Track

STARLINK-3797, 52337 is a payload satellite owned by SpaceX/Seattle (US) in LEO that was launched on Fri, 29 Apr 2022 UTC via an FALCON 9 launch vehicle from the Air Force Eastern Test Range (AFETR). Payload-class satellites include a variety of spacecraft equipped with specific instruments for various scientific and technological missions. These include communications satellites like Starlink; space stations such as the ISS; scientific satellites like the Hubble; Earth observation satellites from companies like Planet Labs, Umbra, and HawkEye 360; GPS; miniature CubeSats for education and research; and military/defense satellites.

Loading next visibility...
Identifier
52337, 2022-045G
Orbit
LEO
Country
Flag of USUS
Related business
Manufacturer
SpaceX/Seattle
Mission
Operational Commercial Communications
Bus & Motor
STARLINK, Unknown motor
Mass
297 kg wet, ~275 kg dry
Launch date (UTC)
2022-04-29 (4 years ago)
Launch vehicle
FALCON 9
Launch site
Air Force Eastern Test Range (AFETR)
Object type
Payload
Rocket body
Debris
Shape & HBR
Box + 1 Pan, 10.1 m
Radar Cross Section
11.087 m², Large (>1 m²)

Expand to show TLE details & history
Last TLE update: 16 hours ago

TLE from 16 hours ago
0 STARLINK-3797
1 52337U 22045G   25348.93016301  .00001153  00000-0  90536-4 0  9995
2 52337  53.2166 229.6232 0001485  87.4281 272.6881 15.08831771202840
Epoch: 2025-12-14T22:19Z
TLE epoch observation values (Epoch: 2025-12-14T22:19:26.084Z)
Latitude
-0.00001°
Longitude
170.92849°
Altitude
540.618 km
Speed
7.593 km/s
True Right ascension
15h 18m 29s
True Declination
0° 00' 00"
Sunlit
Object was in daylight at epoch
Visualization orbit readout
Latitude
Unknown
Longitude
Unknown
Altitude
Unknown
Speed
Unknown
Apparent Right ascension
Unknown
Apparent Declination
Unknown
Sunlit
N/A
Visualization observer readout
Local Sidereal Time
13:20:32
Azimuth
Unknown
Elevation
Unknown
Doppler factor
Unknown
Orbital elements
Apogee altitude
541.041 km
Perigee altitude
538.986 km
Semi-major axis
6,918.151 km
Eccentricity
0.00015
Inclination
53.2166°
RAAN
229.6232°
Arg. of periapsis
87.4281°
True anomaly
272.6711°
Mean anomaly
272.6881°
Eccentric anomaly
272.6796°
Mean motion
3.77188 °/min
Orbital period
95.44 mins
BSTAR
0.000090536
Loading maneuver chart data...
Computing Atmospheric mass density...
Loading historical data...
Loading historical data...
Loading historical data...
Loading historical data...
Loading historical data...
Loading historical data...
Loading historical data...

Documentation

Showing up to 5 results
|